NW Arkansas Airport, AR

2:02 AM CDT on September 22, 2017 (GMT -0500)
Northwest Arkansas Regional

Weather History for KXNA - November, 2012

Change the Weather History Date:

Thursday, November 1, 2012

  Actual Average (KVBT) Record (KVBT)
Temperature  
Mean Temperature 55 °F -  
Max Temperature 73 °F 65 °F 81 °F (1948)
Min Temperature 37 °F 44 °F 19 °F (1993)
Degree Days  
Heating Degree Days 10    
Growing Degree Days 5 (Base 50)    
Moisture  
Dew Point 40 °F    
Average Humidity 65    
Maximum Humidity 93    
Minimum Humidity 29    
Precipitation  
Precipitation 0.00 in - - ()
Sea Level Pressure  
Sea Level Pressure 30.00 in    
Wind  
Wind Speed 2 mph (SSW)    
Max Wind Speed 8 mph    
Max Gust Speed -    
Visibility 9 miles    
Events      
Averages and records for this station are not official NWS values.
T = Trace of Precipitation, MM = Missing Value Source: NWS Daily Summary

Daily Weather History Graph

Daily Weather History Graph

Search for Another Location

Airport or City:

Trip Planner

Search our weather history database for the weather conditions in past years. The results will help you decide how hot, cold, wet, or windy it might be!

Date:

Astronomy

Nov. 01, 2012 Rise Set
Actual Time 7:40 AM CDT 6:20 PM CDT
Civil Twilight 7:14 AM CDT 6:47 PM CDT
Nautical Twilight 6:43 AM CDT 7:17 PM CDT
Astronomical Twilight 6:13 AM CDT 7:47 PM CDT
Moon 8:21 PM CDT (11/1) 10:10 AM CDT (11/1)
Length of Visible Light 11h 33m
Length of Day
10h 39m
Waning Gibbous, 93% of the Moon is Illuminated
Nov 1
Waning Gibbous
Nov 6
Last Quarter
Nov 13
New
Nov 20
First Quarter
Nov 28
Full

Hourly Weather History & Observations

Time (CDT) Temp. Windchill Dew Point Humidity Pressure Visibility Wind Dir Wind Speed Gust Speed Precip Events Conditions
12:53 AM 43.0 °F - 37.9 °F 82% 30.03 in 10.0 mi Calm Calm - N/A   Clear
1:53 AM 42.1 °F - 37.0 °F 82% 30.03 in 10.0 mi Calm Calm - N/A   Clear
2:53 AM 39.0 °F - 36.0 °F 89% 30.04 in 10.0 mi Calm Calm - N/A   Clear
3:53 AM 39.9 °F - 36.0 °F 86% 30.04 in 10.0 mi Calm Calm - N/A   Clear
5:53 AM 39.0 °F - 36.0 °F 89% 30.04 in 10.0 mi Calm Calm - N/A   Clear
7:40 AM 37.4 °F - 35.6 °F 93% 30.04 in 2.5 mi Calm Calm - N/A   Clear
7:48 AM 37.4 °F - 35.6 °F 93% 30.04 in 4.0 mi Calm Calm - N/A   Clear
7:53 AM 37.9 °F - 36.0 °F 93% 30.05 in 5.0 mi Calm Calm - N/A   Clear
8:53 AM 43.0 °F 41.3 °F 39.9 °F 89% 30.06 in 10.0 mi South 3.5 mph - N/A   Clear
9:53 AM 51.1 °F - 41.0 °F 68% 30.05 in 10.0 mi SE 3.5 mph - N/A   Clear
10:53 AM 59.0 °F - 43.0 °F 55% 30.04 in 10.0 mi SSE 6.9 mph - N/A   Clear
11:53 AM 64.0 °F - 42.1 °F 45% 30.03 in 10.0 mi SSE 6.9 mph - N/A   Clear
12:53 PM 69.1 °F - 43.0 °F 39% 29.99 in 10.0 mi Calm Calm - N/A   Clear
1:53 PM 71.1 °F - 39.9 °F 32% 29.97 in 10.0 mi South 4.6 mph - N/A   Clear
2:53 PM 73.0 °F - 39.0 °F 29% 29.95 in 10.0 mi West 5.8 mph - N/A   Clear
3:53 PM 73.0 °F - 41.0 °F 31% 29.93 in 10.0 mi SW 8.1 mph - N/A   Clear
4:53 PM 72.0 °F - 42.1 °F 34% 29.93 in 10.0 mi WSW 6.9 mph - N/A   Clear
5:53 PM 69.1 °F - 43.0 °F 39% 29.93 in 10.0 mi SW 3.5 mph - N/A   Clear
6:53 PM 64.0 °F - 43.0 °F 46% 29.95 in 10.0 mi WSW 3.5 mph - N/A   Clear
7:53 PM 60.1 °F - 43.0 °F 53% 29.96 in 10.0 mi SW 5.8 mph - N/A   Clear
8:53 PM 53.1 °F - 43.0 °F 69% 29.96 in 10.0 mi Calm Calm - N/A   Clear
9:53 PM 52.0 °F - 43.0 °F 71% 29.96 in 10.0 mi SW 3.5 mph - N/A   Clear
10:53 PM 50.0 °F - 43.0 °F 77% 29.95 in 10.0 mi Calm Calm - N/A   Clear
11:53 PM 46.9 °F - 42.1 °F 83% 29.95 in 10.0 mi Calm Calm - N/A   Clear